Regional Weather Roundup
Issued by NWS

Home | Current Version | Previous Version | Graphics & Text | Print | Product List | Glossary On
Versions: 1 2 3 4 5 6 7 8 9 10 11 12 13 14 15 16 17 18 19 20 21 22 23 24 25 26 27 28 29 30 31 32 33 34 35 36 37 38 39 40 41 42 43 44 45 46 47 48 49 50
000
ASUS43 KFSD 220402
RWRSD

WEATHER ROUNDUP FOR SOUTH DAKOTA
NATIONAL WEATHER SERVICE SIOUX FALLS SD
1100 PM CDT TUE MAR 21 2017

NOTE: "FAIR" INDICATES FEW OR NO CLOUDS BELOW 12,000 FEET WITH NO
SIGNIFICANT WEATHER AND/OR OBSTRUCTIONS TO VISIBILITY.


SDZ001>005-009-010-012>017-220500-
NORTHWEST AND NORTH CENTRAL SOUTH DAKOTA

CITY           SKY/WX    TMP DP  RH WIND       PRES   REMARKS
BUFFALO          N/A     29  25  85 SE22G32   30.14F WCI  15
FAITH            N/A     29  21  72 SE18G25   30.30F WCI  16
MOBRIDGE       CLOUDY    30  18  60 SE17      30.38F WCI  18
$$

SDZ012>016-024>037-041>051-057-063-072>074-220500-
SOUTHWEST AND SOUTH CENTRAL SOUTH DAKOTA

CITY           SKY/WX    TMP DP  RH WIND       PRES   REMARKS
RAPID CTY ARPT CLOUDY    29  27  92 SE16      30.24F WCI  17
PIERRE         CLOUDY    31  19  61 E15       30.39F WCI  20
CUSTER         FOG       28  25  88 E6        30.16S VSB 1/4 WCI  22
ELLSWORTH AFB  CLOUDY    29  29 100 SE8       30.23  FOG     WCI  21
PHILIP         CLOUDY    30  25  81 E10       30.34F WCI  21
PINE RIDGE     CLOUDY    34  32  92 SE20G26   30.23S WCI  23
SPEARFISH      FAIR      30  30 100 E21G28    30.10F WCI  17
WINNER         CLOUDY    34  21  59 E14       30.40F WCI  25
$$

SDZ004>011-016>023-039-040-220500-
NORTHEAST SOUTH DAKOTA

CITY           SKY/WX    TMP DP  RH WIND       PRES   REMARKS
ABERDEEN       CLEAR     22  13  68 E13       30.51F WCI  10
WATERTOWN      CLEAR     20  14  77 NE9       30.47F WCI   9
BROOKINGS      CLEAR     23  16  74 NE5       30.47F WCI  17
SISSETON         N/A     19  15  84 NW5       30.54S WCI  12
$$

SDZ017-020-022-023-036>040-048>070-220500-
SOUTHEAST SOUTH DAKOTA

CITY           SKY/WX    TMP DP  RH WIND       PRES   REMARKS
SIOUX FALLS    CLOUDY    26  19  74 NE7       30.49R WCI  18
HURON          CLOUDY    27  20  75 E8        30.49R WCI  19
CHAMBERLAIN    CLOUDY    33  21  60 E7        30.44R WCI  27
MITCHELL       CLOUDY    30  20  66 E12       30.49R WCI  20
YANKTON        CLOUDY    34  21  60 NE10      30.47S WCI  26
$$

ABBREVIATIONS USED IN REMARKS
   TC - TEMPERATURE IN CELSIUS
  WCI - WIND CHILL INDEX
   HX - HEAT INDEX
  VSB - VISIBILITY





USA.gov is the U.S. government's official web portal to all federal, state and local government web resources and services.